Weather History for Fort Hood, TX

Change the Weather History Date:

Tuesday, December 3, 2013

  Actual Average Record
Temperature  
Mean Temperature 68 °F -  
Max Temperature 82 °F 61 °F 86 °F (2005)
Min Temperature 55 °F 42 °F 28 °F (2006)
Cooling Degree Days 4    
Growing Degree Days 18 (Base 50)    
Moisture  
Dew Point 40 °F    
Average Humidity 39    
Maximum Humidity 55    
Minimum Humidity 20    
Precipitation  
Precipitation 0.00 in - - ()
Sea Level Pressure  
Sea Level Pressure 29.64 in    
Wind  
Wind Speed 13 mph (SW)    
Max Wind Speed 21 mph    
Max Gust Speed 25 mph    
Visibility 7 miles    
Events      
Averages and records for this station are not official NWS values.
T = Trace of Precipitation, MM = Missing Value Source: NWS Daily Summary

Daily Weather History Graph

Daily Weather History Graph

Search for Another Location

Airport:

Trip Planner

Search our weather history database for the weather conditions in past years. The results will help you decide how hot, cold, wet, or windy it might be!

Date:

Astronomy

Dec. 03, 2013 Rise Set
Actual Time 7:13 AM CST 5:28 PM CST
Civil Twilight 6:47 AM CST 5:55 PM CST
Nautical Twilight 6:17 AM CST 6:25 PM CST
Astronomical Twilight 5:48 AM CST 6:54 PM CST
Moon 7:45 AM CST (12/3) 6:32 PM CST (12/3)
Length of Visible Light 11h 07m
Length of Day
10h 15m
New Moon, 1% of the Moon is Illuminated
Dec 3
New Moon
Dec 9
First Quarter
Dec 17
Full
Dec 25
Last Quarter
Jan 1
New

Hourly Weather History & Observations

Time (CST) Temp. Dew Point Humidity Pressure Visibility Wind Dir Wind Speed Gust Speed Precip Events Conditions
12:55 AM 55.4 °F 39.2 °F 54% 29.68 in 7.0 mi South 3.5 mph - N/A   Clear
1:55 AM 60.8 °F 37.4 °F 42% 29.65 in 7.0 mi SW 15.0 mph - N/A   Clear
2:55 AM 60.8 °F 37.4 °F 42% 29.63 in 7.0 mi SSW 16.1 mph - N/A   Partly Cloudy
3:55 AM 60.8 °F 41.0 °F 48% 29.62 in 7.0 mi WSW 16.1 mph - N/A   Partly Cloudy
4:55 AM 60.8 °F 44.6 °F 55% 29.61 in 7.0 mi SW 17.3 mph - N/A   Partly Cloudy
5:55 AM 59.0 °F 42.8 °F 55% 29.63 in 7.0 mi SW 16.1 mph - N/A   Partly Cloudy
6:55 AM 60.8 °F 42.8 °F 52% 29.63 in 7.0 mi SW 18.4 mph - N/A   Partly Cloudy
7:55 AM 60.8 °F 41.0 °F 48% 29.65 in 7.0 mi WSW 20.7 mph - N/A   Partly Cloudy
8:59 AM 62.6 °F 39.2 °F 42% 29.66 in 7.0 mi WSW 16.1 mph 25.3 mph N/A   Partly Cloudy
9:55 AM 68.0 °F 39.2 °F 35% 29.67 in 7.0 mi SW 17.3 mph - N/A   Scattered Clouds
10:55 AM 73.4 °F 35.6 °F 25% 29.67 in 7.0 mi SW 17.3 mph 23.0 mph N/A   Mostly Cloudy
11:55 AM 75.2 °F 37.4 °F 25% 29.65 in 7.0 mi SW 15.0 mph - N/A   Mostly Cloudy
12:55 PM 78.8 °F 37.4 °F 23% 29.62 in 7.0 mi SSW 11.5 mph - N/A   Scattered Clouds
1:55 PM 80.6 °F 37.4 °F 21% 29.59 in 7.0 mi SW 11.5 mph - N/A   Scattered Clouds
2:55 PM 82.4 °F 37.4 °F 20% 29.59 in 7.0 mi SW 8.1 mph - N/A   Scattered Clouds
7:55 PM 64.4 °F 44.6 °F 49% 29.64 in 7.0 mi South 4.6 mph - N/A   Partly Cloudy
8:55 PM 69.8 °F 42.8 °F 38% 29.65 in 7.0 mi SSW 10.4 mph - N/A   Partly Cloudy
9:55 PM 68.0 °F 41.0 °F 37% 29.65 in 7.0 mi South 12.7 mph - N/A   Partly Cloudy
10:55 PM 66.2 °F 39.2 °F 37% 29.66 in 7.0 mi SSW 10.4 mph - N/A   Partly Cloudy
11:55 PM 64.4 °F 39.2 °F 40% 29.65 in 7.0 mi SSW 13.8 mph - N/A   Partly Cloudy